This is the latest recevied weather packets stored in our database for station/object EA1CUE-WX. If no packets are shown the sender has not sent any weather packets the latest 10 day(s).
| Time | Temp. | Humidity | Pressure | Rain* | Wind** | Luminosity | Snow |
|---|---|---|---|---|---|---|---|
| 1778086126 | 13.33° C | 47% | 1011.5 hPa | 0 mm | - | - | - |
| 1778085826 | 12.78° C | 48% | 1011.5 hPa | 0 mm | - | - | - |
| 1778085526 | 13.33° C | 46% | 1011.6 hPa | 0 mm | - | - | - |
| 1778085226 | 12.78° C | 45% | 1011.5 hPa | 0 mm | - | - | - |
| 1778084926 | 12.78° C | 42% | 1011.4 hPa | 0 mm | - | - | - |
| 1778084626 | 12.22° C | 42% | 1011.4 hPa | 0 mm | - | - | - |
| 1778084326 | 11.67° C | 24% | 1011.4 hPa | 0 mm | - | - | - |
| 1778084026 | 11.67° C | 32% | 1011.4 hPa | 0 mm | - | - | - |
| 1778083726 | 11.67° C | 37% | 1011.4 hPa | 0 mm | - | - | - |
| 1778083426 | 11.67° C | 45% | 1011.6 hPa | 0 mm | - | - | - |
| 1778083126 | 12.22° C | 47% | 1011.6 hPa | 0 mm | - | - | - |
| 1778082826 | 12.22° C | 49% | 1011.6 hPa | 0 mm | - | - | - |
| 1778082526 | 12.22° C | 50% | 1011.6 hPa | 0 mm | - | - | - |
| 1778082226 | 12.78° C | 51% | 1011.6 hPa | 0 mm | - | - | - |
| 1778081926 | 12.78° C | 52% | 1011.6 hPa | 0 mm | - | - | - |
| 1778081626 | 12.78° C | 51% | 1011.6 hPa | 0 mm | - | - | - |
| 1778081326 | 13.33° C | 51% | 1011.6 hPa | 0 mm | - | - | - |
| 1778081026 | 13.89° C | 51% | 1011.6 hPa | 0 mm | - | - | - |
| 1778080726 | 13.89° C | 51% | 1011.6 hPa | 0 mm | - | - | - |
| 1778080426 | 13.89° C | 51% | 1011.6 hPa | 0 mm | - | - | - |
| 1778080126 | 13.89° C | 51% | 1011.7 hPa | 0 mm | - | - | - |
| 1778079826 | 14.44° C | 50% | 1011.7 hPa | 0 mm | - | - | - |
| 1778079526 | 14.44° C | 50% | 1011.7 hPa | 0 mm | - | - | - |
| 1778079226 | 14.44° C | 50% | 1011.7 hPa | 0 mm | - | - | - |
| 1778078926 | 15° C | 49% | 1011.7 hPa | 0 mm | - | - | - |
* Rain latest hour (hover to see other rain measurements)
** Current wind speed in m/s (hover to see current wind gust speed)